Riverside, CA

5:04 AM PDT on April 30, 2017 (GMT -0700)
Riverside Municipal

Weather History for KRAL - May, 2014

Change the Weather History Date:

Monday, May 12, 2014

  Actual Average Record
Temperature  
Mean Temperature 73 °F 68 °F  
Max Temperature 91 °F 80 °F 103 °F (1927)
Min Temperature 55 °F 55 °F 37 °F (1953)
Degree Days  
Heating Degree Days 0 1  
Month to date heating degree days 7 16  
Since 1 July heating degree days 802 1436  
Cooling Degree Days 8 3  
Month to date cooling degree days 59 36  
Year to date cooling degree days 211 99  
Growing Degree Days 23 (Base 50)    
Moisture  
Dew Point 19 °F    
Average Humidity 28    
Maximum Humidity 51    
Minimum Humidity 4    
Precipitation  
Precipitation 0.00 in 0.01 in 0.82 in (1998)
Month to date precipitation 0.00 0.25  
Year to date precipitation 1.72 9.04  
Since 1 July precipitation 2.87  
Snow  
Snow 0.00 in - - ()
Month to date snowfall 0.0  
Year to date snowfall 0.0  
Snow Depth 0.00 in    
Sea Level Pressure  
Sea Level Pressure 29.95 in    
Wind  
Wind Speed 7 mph (NNE)    
Max Wind Speed 18 mph    
Max Gust Speed 26 mph    
Visibility 10 miles    
Events      
T = Trace of Precipitation, MM = Missing Value Source: NWS Daily Summary

Daily Weather History Graph

Daily Weather History Graph

Search for Another Location

Airport or City:

Trip Planner

Search our weather history database for the weather conditions in past years. The results will help you decide how hot, cold, wet, or windy it might be!

Date:

Astronomy

May. 12, 2014 Rise Set
Actual Time 5:50 AM PDT 7:42 PM PDT
Civil Twilight 5:23 AM PDT 8:09 PM PDT
Nautical Twilight 4:50 AM PDT 8:42 PM PDT
Astronomical Twilight 4:14 AM PDT 9:18 PM PDT
Moon 5:50 PM PDT (5/12) 4:25 AM PDT (5/12)
Length of Visible Light 14h 46m
Length of Day
13h 51m
Waxing Gibbous, 95% of the Moon is Illuminated
May 12
Waxing Gibbous
May 14
Full
May 21
Last Quarter
May 28
New
Jun 5
First Quarter

Hourly Weather History & Observations

Time (PDT) Temp. Dew Point Humidity Pressure Visibility Wind Dir Wind Speed Gust Speed Precip Events Conditions
12:53 AM 60.1 °F 35.1 °F 39% 29.95 in 10.0 mi Calm Calm - N/A   Clear
1:53 AM 55.9 °F 37.0 °F 49% 29.95 in 10.0 mi South 4.6 mph - N/A   Clear
2:53 AM 57.0 °F 34.0 °F 42% 29.95 in 10.0 mi SSE 4.6 mph - N/A   Clear
3:53 AM 61.0 °F 30.9 °F 32% 29.94 in 10.0 mi ESE 3.5 mph - N/A   Clear
4:53 AM 64.0 °F 26.1 °F 24% 29.94 in 10.0 mi Calm Calm - N/A   Clear
5:53 AM 60.1 °F 28.9 °F 31% 29.95 in 10.0 mi Calm Calm - N/A   Clear
7:53 AM 75.0 °F 19.0 °F 12% 29.99 in 10.0 mi Calm Calm - N/A   Clear
8:53 AM 79.0 °F 21.0 °F 12% 30.00 in 10.0 mi North 9.2 mph 21.9 mph N/A   Partly Cloudy
9:53 AM 82.0 °F 21.0 °F 10% 30.00 in 10.0 mi ENE 8.1 mph 24.2 mph N/A   Partly Cloudy
10:53 AM 84.0 °F 16.0 °F 8% 30.00 in 10.0 mi ENE 10.4 mph 21.9 mph N/A   Clear
11:53 AM 84.9 °F 14.0 °F 7% 29.98 in 10.0 mi NNE 12.7 mph 21.9 mph N/A   Clear
12:53 PM 88.0 °F 10.9 °F 6% 29.96 in 10.0 mi North 11.5 mph 25.3 mph N/A   Clear
1:53 PM 89.1 °F 12.0 °F 6% 29.95 in 10.0 mi NNE 11.5 mph 21.9 mph N/A   Clear
2:53 PM 89.1 °F 8.1 °F 5% 29.93 in 10.0 mi North 13.8 mph 23.0 mph N/A   Clear
3:53 PM 90.0 °F 8.1 °F 5% 29.91 in 10.0 mi North 10.4 mph 18.4 mph N/A   Clear
4:53 PM 91.0 °F 3.9 °F 4% 29.89 in 10.0 mi NNE 11.5 mph 20.7 mph N/A   Clear
5:53 PM 89.1 °F 7.0 °F 5% 29.88 in 10.0 mi North 10.4 mph 19.6 mph N/A   Clear
6:53 PM 88.0 °F 8.1 °F 5% 29.90 in 10.0 mi Variable 6.9 mph - N/A   Clear
8:53 PM 78.1 °F 18.0 °F 10% 29.94 in 10.0 mi WSW 8.1 mph - N/A   Clear
9:53 PM 73.0 °F 21.9 °F 15% 29.96 in 10.0 mi Calm Calm - N/A   Clear
11:53 PM 66.0 °F 28.0 °F 24% 29.98 in 10.0 mi Calm Calm - N/A   Clear